AUA971 LOWW-ESGG

Flight info

Callsign AUA971
Flight time 1h 38m
Altitude 38000
Route LANUX6D/34 LANUX DCT VLM DCT HDO DCT SONAL DCT ROKAM L997 RISMA
Aircraft A319/M-SDE3FGHIRWY/LB1

Departure

Time 2026-04-26 18:43
Airport Vienna International Airport (LOWW)

Arrival

Time 2026-04-26 20:22
Airport Göteborg Landvetter Airport (ESGG)
Time Latitude Longitude Altitude Speed Heading
2026-04-26 18:02 48.12057 16.55627 564 ft 0 kts 106°
2026-04-26 18:21 48.12058 16.55625 591 ft 2 kts 106°
2026-04-26 18:21 48.12063 16.55601 591 ft 2 kts 113°
2026-04-26 18:22 48.12069 16.55578 591 ft 2 kts 115°
2026-04-26 18:22 48.12081 16.55561 591 ft 2 kts 183°
2026-04-26 18:22 48.12097 16.55567 590 ft 2 kts 212°
2026-04-26 18:22 48.12106 16.55572 590 ft 0 kts 219°
2026-04-26 18:26 48.12100 16.55565 590 ft 1 kts 219°
2026-04-26 18:26 48.12092 16.55556 590 ft 2 kts 211°
2026-04-26 18:26 48.12071 16.55546 591 ft 5 kts 200°
2026-04-26 18:26 48.12040 16.55525 592 ft 6 kts 206°
2026-04-26 18:27 48.11990 16.55490 593 ft 9 kts 205°
2026-04-26 18:27 48.11940 16.55454 594 ft 7 kts 202°
2026-04-26 18:27 48.11889 16.55427 594 ft 8 kts 192°
2026-04-26 18:27 48.11831 16.55437 594 ft 8 kts 165°
2026-04-26 18:28 48.11795 16.55486 595 ft 6 kts 119°
2026-04-26 18:28 48.11779 16.55533 597 ft 4 kts 117°
2026-04-26 18:28 48.11768 16.55565 597 ft 3 kts 117°
2026-04-26 18:28 48.11759 16.55591 598 ft 4 kts 116°
2026-04-26 18:29 48.11743 16.55638 599 ft 7 kts 116°
2026-04-26 18:29 48.11718 16.55718 599 ft 11 kts 115°
2026-04-26 18:29 48.11687 16.55815 601 ft 11 kts 116°
2026-04-26 18:29 48.11653 16.55915 603 ft 10 kts 116°
2026-04-26 18:30 48.11620 16.56015 603 ft 12 kts 117°
2026-04-26 18:30 48.11576 16.56142 602 ft 15 kts 117°
2026-04-26 18:30 48.11531 16.56290 601 ft 17 kts 111°
2026-04-26 18:30 48.11478 16.56462 598 ft 19 kts 118°
2026-04-26 18:31 48.11418 16.56635 601 ft 18 kts 115°
2026-04-26 18:31 48.11365 16.56801 603 ft 17 kts 116°
2026-04-26 18:31 48.11317 16.56948 609 ft 15 kts 116°
2026-04-26 18:31 48.11271 16.57085 606 ft 15 kts 116°
2026-04-26 18:32 48.11225 16.57224 607 ft 15 kts 112°
2026-04-26 18:32 48.11181 16.57367 617 ft 16 kts 116°
2026-04-26 18:32 48.11129 16.57525 615 ft 17 kts 116°
2026-04-26 18:32 48.11077 16.57684 614 ft 17 kts 115°
2026-04-26 18:33 48.10999 16.57810 607 ft 17 kts 160°
2026-04-26 18:33 48.10892 16.57859 616 ft 16 kts 162°
2026-04-26 18:33 48.10787 16.57904 609 ft 15 kts 165°
2026-04-26 18:33 48.10690 16.57944 618 ft 14 kts 165°
2026-04-26 18:34 48.10596 16.57979 610 ft 14 kts 163°
2026-04-26 18:34 48.10497 16.58036 607 ft 16 kts 155°
2026-04-26 18:34 48.10392 16.58079 607 ft 16 kts 176°
2026-04-26 18:34 48.10284 16.58110 612 ft 16 kts 166°
2026-04-26 18:35 48.10177 16.58159 611 ft 16 kts 163°
2026-04-26 18:35 48.10067 16.58206 613 ft 17 kts 165°
2026-04-26 18:35 48.09955 16.58261 615 ft 17 kts 152°
2026-04-26 18:35 48.09848 16.58300 613 ft 15 kts 166°
2026-04-26 18:36 48.09744 16.58344 607 ft 16 kts 165°
2026-04-26 18:36 48.09639 16.58387 616 ft 16 kts 164°
2026-04-26 18:36 48.09523 16.58435 603 ft 19 kts 165°
2026-04-26 18:36 48.09394 16.58482 602 ft 19 kts 167°
2026-04-26 18:37 48.09269 16.58545 598 ft 20 kts 165°
2026-04-26 18:37 48.09135 16.58602 597 ft 20 kts 164°
2026-04-26 18:37 48.08997 16.58659 596 ft 21 kts 164°
2026-04-26 18:37 48.08885 16.58706 599 ft 13 kts 163°
2026-04-26 18:38 48.08813 16.58784 598 ft 14 kts 125°
2026-04-26 18:38 48.08791 16.58920 596 ft 10 kts 88°
2026-04-26 18:38 48.08794 16.58948 596 ft 0 kts 79°
2026-04-26 18:41 48.08798 16.58968 596 ft 6 kts 73°
2026-04-26 18:41 48.08831 16.59052 595 ft 11 kts 55°
2026-04-26 18:42 48.08889 16.59103 597 ft 10 kts 10°
2026-04-26 18:42 48.08957 16.59092 597 ft 10 kts 340°
2026-04-26 18:42 48.08983 16.59082 597 ft 0 kts 345°
2026-04-26 18:42 48.08995 16.59077 597 ft 8 kts 345°
2026-04-26 18:43 48.09217 16.58984 596 ft 70 kts 344°
2026-04-26 18:43 48.09914 16.58692 610 ft 135 kts 345°
2026-04-26 18:43 48.10956 16.58268 882 ft 160 kts 345°
2026-04-26 18:43 48.12013 16.57813 1673 ft 157 kts 349°
2026-04-26 18:44 48.13075 16.58048 2356 ft 157 kts 20°
2026-04-26 18:44 48.14066 16.58736 3042 ft 158 kts 27°
2026-04-26 18:44 48.15081 16.59487 3544 ft 172 kts 22°
2026-04-26 18:44 48.16250 16.60255 3892 ft 195 kts 21°
2026-04-26 18:45 48.17563 16.61096 4279 ft 216 kts 21°
2026-04-26 18:45 48.19012 16.62041 4730 ft 239 kts 24°
2026-04-26 18:45 48.20535 16.63272 5389 ft 255 kts 25°
2026-04-26 18:45 48.22239 16.63980 6195 ft 257 kts 357°
2026-04-26 18:46 48.23967 16.63461 7077 ft 253 kts 331°
2026-04-26 18:46 48.25362 16.61881 7950 ft 254 kts 313°
2026-04-26 18:46 48.26575 16.59988 8835 ft 257 kts 313°
2026-04-26 18:46 48.27824 16.58036 9708 ft 262 kts 313°
2026-04-26 18:47 48.29121 16.56008 10384 ft 274 kts 313°
2026-04-26 18:47 48.30490 16.53830 10664 ft 298 kts 308°
2026-04-26 18:47 48.31883 16.51442 10970 ft 317 kts 312°
2026-04-26 18:47 48.33427 16.48935 11599 ft 325 kts 314°
2026-04-26 18:48 48.35023 16.46517 12402 ft 327 kts 311°
2026-04-26 18:48 48.36598 16.44084 13184 ft 330 kts 314°
2026-04-26 18:48 48.38223 16.41617 13915 ft 334 kts 315°
2026-04-26 18:48 48.39894 16.39097 14588 ft 338 kts 315°
2026-04-26 18:49 48.41540 16.36602 15249 ft 341 kts 314°
2026-04-26 18:49 48.43232 16.34004 15913 ft 345 kts 314°
2026-04-26 18:49 48.44888 16.31435 16556 ft 348 kts 314°
2026-04-26 18:49 48.46578 16.28791 17213 ft 352 kts 314°
2026-04-26 18:50 48.48297 16.26084 17862 ft 355 kts 313°
2026-04-26 18:50 48.50013 16.23373 18513 ft 359 kts 313°
2026-04-26 18:50 48.51720 16.20669 19069 ft 362 kts 313°
2026-04-26 18:50 48.53468 16.17906 19634 ft 365 kts 313°
2026-04-26 18:51 48.55228 16.15129 20199 ft 369 kts 313°
2026-04-26 18:51 48.57011 16.12318 20771 ft 372 kts 313°
2026-04-26 18:51 48.58807 16.09482 21331 ft 375 kts 313°
2026-04-26 18:51 48.60614 16.06624 21881 ft 378 kts 312°
2026-04-26 18:52 48.62443 16.03730 22405 ft 382 kts 312°
2026-04-26 18:52 48.63686 16.01761 22754 ft 384 kts 312°
2026-04-26 18:52 48.65533 15.98831 23264 ft 387 kts 312°
2026-04-26 18:52 48.67398 15.95869 23764 ft 390 kts 312°
2026-04-26 18:53 48.69277 15.92880 24189 ft 393 kts 312°
2026-04-26 18:53 48.71168 15.89865 24616 ft 395 kts 312°
2026-04-26 18:53 48.73063 15.86843 25061 ft 397 kts 311°
2026-04-26 18:53 48.74945 15.83841 25470 ft 399 kts 311°
2026-04-26 18:54 48.76861 15.80779 25894 ft 401 kts 311°
2026-04-26 18:54 48.78807 15.77666 26330 ft 403 kts 311°
2026-04-26 18:54 48.80712 15.74611 26747 ft 405 kts 311°
2026-04-26 18:54 48.82407 15.71891 27111 ft 406 kts 311°
2026-04-26 18:55 48.84247 15.68911 27498 ft 408 kts 311°
2026-04-26 18:55 48.86177 15.65749 27915 ft 410 kts 311°
2026-04-26 18:55 48.88279 15.62798 28295 ft 415 kts 320°
2026-04-26 18:56 48.90468 15.60610 28641 ft 420 kts 328°
2026-04-26 18:56 48.91732 15.59648 28823 ft 423 kts 332°
2026-04-26 18:56 48.94440 15.57880 29198 ft 425 kts 333°
2026-04-26 18:56 48.97163 15.56089 29567 ft 427 kts 333°
2026-04-26 18:57 48.99884 15.54280 29927 ft 428 kts 333°
2026-04-26 18:57 49.01738 15.53044 30165 ft 430 kts 333°
2026-04-26 18:57 49.05365 15.50615 30591 ft 432 kts 333°
2026-04-26 18:57 49.08127 15.48765 30880 ft 434 kts 333°
2026-04-26 18:58 49.10889 15.46920 31246 ft 433 kts 333°
2026-04-26 18:58 49.13644 15.45084 31677 ft 431 kts 333°
2026-04-26 18:58 49.16394 15.43250 32106 ft 430 kts 333°
2026-04-26 18:58 49.19126 15.41424 32552 ft 428 kts 332°
2026-04-26 18:59 49.21851 15.39599 32975 ft 427 kts 332°
2026-04-26 18:59 49.24563 15.37779 33399 ft 425 kts 332°
2026-04-26 18:59 49.27270 15.35960 33815 ft 424 kts 332°
2026-04-26 18:59 49.29973 15.34144 34246 ft 423 kts 332°
2026-04-26 19:00 49.32662 15.32336 34608 ft 422 kts 332°
2026-04-26 19:00 49.35352 15.30527 34956 ft 422 kts 332°
2026-04-26 19:00 49.38035 15.28717 35272 ft 422 kts 332°
2026-04-26 19:00 49.40718 15.26901 35593 ft 421 kts 333°
2026-04-26 19:01 49.43402 15.25082 35897 ft 421 kts 333°
2026-04-26 19:01 49.46080 15.23268 36185 ft 421 kts 333°
2026-04-26 19:01 49.51446 15.19628 36280 ft 421 kts 333°
2026-04-26 19:02 49.56803 15.15984 36283 ft 420 kts 333°
2026-04-26 19:02 49.61246 15.12959 36291 ft 420 kts 333°
2026-04-26 19:03 49.67498 15.08691 36283 ft 420 kts 333°
2026-04-26 19:03 49.72838 15.05160 36285 ft 421 kts 335°
2026-04-26 19:04 49.78356 15.02086 36283 ft 422 kts 338°
2026-04-26 19:04 49.83911 14.99150 36284 ft 422 kts 338°
2026-04-26 19:05 49.92192 14.94585 36284 ft 421 kts 337°
2026-04-26 19:06 49.97697 14.91468 36277 ft 421 kts 336°
2026-04-26 19:06 50.03238 14.88334 36268 ft 421 kts 337°
2026-04-26 19:07 50.08696 14.85258 36286 ft 420 kts 337°
2026-04-26 19:07 50.14195 14.82158 36276 ft 420 kts 337°
2026-04-26 19:08 50.19690 14.79049 36273 ft 420 kts 337°
2026-04-26 19:08 50.25175 14.75929 36275 ft 420 kts 337°
2026-04-26 19:09 50.30566 14.72858 36278 ft 420 kts 337°
2026-04-26 19:09 50.36051 14.69724 36287 ft 419 kts 337°
2026-04-26 19:10 50.41528 14.66590 36292 ft 419 kts 337°
2026-04-26 19:10 50.47005 14.63456 36290 ft 419 kts 337°
2026-04-26 19:11 50.52479 14.60314 36291 ft 418 kts 337°
2026-04-26 19:11 50.57936 14.57170 36299 ft 418 kts 337°
2026-04-26 19:12 50.63393 14.54014 36298 ft 417 kts 337°
2026-04-26 19:12 50.68836 14.50858 36300 ft 417 kts 337°
2026-04-26 19:13 50.74270 14.47698 36302 ft 416 kts 337°
2026-04-26 19:13 50.79698 14.44547 36302 ft 416 kts 337°
2026-04-26 19:14 50.85123 14.41389 36302 ft 415 kts 336°
2026-04-26 19:14 50.90538 14.38216 36304 ft 415 kts 336°
2026-04-26 19:15 50.96092 14.35677 36303 ft 417 kts 343°
2026-04-26 19:15 51.01742 14.33608 36304 ft 417 kts 343°
2026-04-26 19:16 51.07386 14.31531 36308 ft 416 kts 343°
2026-04-26 19:16 51.13031 14.29447 36307 ft 416 kts 343°
2026-04-26 19:17 51.18665 14.27358 36303 ft 415 kts 343°
2026-04-26 19:17 51.24291 14.25265 36306 ft 415 kts 343°
2026-04-26 19:18 51.29913 14.23175 36307 ft 415 kts 343°
2026-04-26 19:18 51.35534 14.21087 36308 ft 414 kts 343°
2026-04-26 19:19 51.41146 14.18990 36308 ft 414 kts 342°
2026-04-26 19:19 51.46753 14.16889 36307 ft 414 kts 342°
2026-04-26 19:20 51.52353 14.14783 36309 ft 413 kts 342°
2026-04-26 19:20 51.57938 14.12681 36307 ft 412 kts 342°
2026-04-26 19:21 51.63519 14.10575 36307 ft 411 kts 342°
2026-04-26 19:21 51.69088 14.08462 36307 ft 411 kts 342°
2026-04-26 19:22 51.74652 14.06350 36308 ft 410 kts 342°
2026-04-26 19:22 51.80209 14.04245 36308 ft 410 kts 342°
2026-04-26 19:23 51.85757 14.02125 36310 ft 409 kts 342°
2026-04-26 19:23 51.91264 14.00012 36308 ft 409 kts 341°
2026-04-26 19:24 51.96793 13.97881 36309 ft 408 kts 342°
2026-04-26 19:24 52.05121 13.94682 36935 ft 408 kts 342°
2026-04-26 19:25 52.07882 13.93617 37222 ft 407 kts 342°
2026-04-26 19:25 52.08770 13.93274 37320 ft 407 kts 342°
2026-04-26 19:25 52.13389 13.91489 37735 ft 407 kts 342°
2026-04-26 19:25 52.16151 13.90422 37992 ft 407 kts 342°
2026-04-26 19:26 52.18870 13.89369 38225 ft 407 kts 342°
2026-04-26 19:26 52.21626 13.88302 38308 ft 408 kts 342°
2026-04-26 19:26 52.27142 13.86163 38311 ft 407 kts 342°
2026-04-26 19:27 52.32647 13.84014 38305 ft 406 kts 342°
2026-04-26 19:27 52.38134 13.81868 38306 ft 406 kts 342°
2026-04-26 19:28 52.43622 13.79714 38310 ft 405 kts 342°
2026-04-26 19:28 52.49107 13.77567 38318 ft 405 kts 342°
2026-04-26 19:29 52.54599 13.75408 38322 ft 405 kts 342°
2026-04-26 19:29 52.60075 13.73230 38324 ft 405 kts 342°
2026-04-26 19:30 52.65553 13.71063 38335 ft 404 kts 342°
2026-04-26 19:30 52.70138 13.69248 38337 ft 404 kts 342°
2026-04-26 19:31 52.76483 13.66731 38344 ft 403 kts 342°
2026-04-26 19:31 52.81941 13.64559 38340 ft 403 kts 342°
2026-04-26 19:32 52.87393 13.62372 38344 ft 403 kts 342°
2026-04-26 19:32 52.92834 13.60185 38350 ft 402 kts 342°
2026-04-26 19:33 52.98269 13.57994 38279 ft 403 kts 343°
2026-04-26 19:33 53.03782 13.55764 38313 ft 412 kts 343°
2026-04-26 19:34 53.09365 13.53511 38315 ft 414 kts 343°
2026-04-26 19:34 53.14960 13.51257 38320 ft 414 kts 343°
2026-04-26 19:35 53.20558 13.48991 38321 ft 414 kts 343°
2026-04-26 19:35 53.26148 13.46710 38323 ft 414 kts 343°
2026-04-26 19:36 53.29894 13.45181 38327 ft 414 kts 343°
2026-04-26 19:36 53.36402 13.42517 38330 ft 414 kts 343°
2026-04-26 19:37 53.41996 13.40226 38330 ft 414 kts 343°
2026-04-26 19:37 53.43820 13.39477 38331 ft 414 kts 343°
2026-04-26 19:38 53.48822 13.37397 38335 ft 414 kts 343°
2026-04-26 19:38 53.54417 13.35098 38336 ft 414 kts 343°
2026-04-26 19:39 53.60005 13.32786 38331 ft 413 kts 343°
2026-04-26 19:39 53.65589 13.30465 38332 ft 413 kts 343°
2026-04-26 19:40 53.71173 13.28140 38331 ft 413 kts 343°
2026-04-26 19:40 53.76754 13.25807 38324 ft 413 kts 343°
2026-04-26 19:41 53.82338 13.23463 38322 ft 413 kts 343°
2026-04-26 19:41 53.86976 13.21519 38321 ft 413 kts 343°
2026-04-26 19:42 53.93504 13.18788 38330 ft 414 kts 343°
2026-04-26 19:42 53.99052 13.16442 38327 ft 413 kts 343°
2026-04-26 19:43 54.04628 13.14072 38327 ft 413 kts 343°
2026-04-26 19:43 54.10208 13.11710 38327 ft 413 kts 343°
2026-04-26 19:44 54.15777 13.09339 38321 ft 413 kts 343°
2026-04-26 19:44 54.18561 13.08151 38184 ft 411 kts 343°
2026-04-26 19:44 54.21348 13.07008 37513 ft 412 kts 344°
2026-04-26 19:45 54.24142 13.05918 36800 ft 412 kts 344°
2026-04-26 19:45 54.26929 13.04863 36254 ft 410 kts 344°
2026-04-26 19:45 54.29726 13.03808 35547 ft 411 kts 344°
2026-04-26 19:45 54.32514 13.02752 35249 ft 412 kts 344°
2026-04-26 19:46 54.35320 13.01678 34932 ft 414 kts 343°
2026-04-26 19:46 54.38135 13.00587 34617 ft 415 kts 343°
2026-04-26 19:46 54.40952 12.99494 34306 ft 415 kts 343°
2026-04-26 19:46 54.43772 12.98401 33951 ft 415 kts 343°
2026-04-26 19:47 54.46589 12.97306 33595 ft 416 kts 343°
2026-04-26 19:47 54.48494 12.96563 33356 ft 416 kts 343°
2026-04-26 19:47 54.52237 12.95102 32880 ft 416 kts 343°
2026-04-26 19:47 54.55061 12.93994 32554 ft 416 kts 343°
2026-04-26 19:48 54.57883 12.92887 32214 ft 416 kts 343°
2026-04-26 19:48 54.60709 12.91778 31878 ft 417 kts 343°
2026-04-26 19:48 54.63541 12.90669 31550 ft 417 kts 343°
2026-04-26 19:48 54.66367 12.89564 31228 ft 417 kts 343°
2026-04-26 19:49 54.69198 12.88453 30898 ft 416 kts 343°
2026-04-26 19:49 54.72009 12.87346 30581 ft 414 kts 343°
2026-04-26 19:49 54.74809 12.86241 30261 ft 411 kts 343°
2026-04-26 19:49 54.77594 12.85140 29877 ft 409 kts 343°
2026-04-26 19:50 54.80361 12.84046 29499 ft 406 kts 343°
2026-04-26 19:50 54.83108 12.82962 29262 ft 404 kts 343°
2026-04-26 19:50 54.88622 12.80763 29289 ft 404 kts 343°
2026-04-26 19:51 54.94070 12.78582 29288 ft 404 kts 343°
2026-04-26 19:51 54.99554 12.76386 29286 ft 405 kts 343°
2026-04-26 19:52 55.05041 12.74185 29285 ft 405 kts 343°
2026-04-26 19:52 55.10531 12.71990 29281 ft 405 kts 343°
2026-04-26 19:53 55.16014 12.69778 29284 ft 405 kts 343°
2026-04-26 19:53 55.21499 12.67549 29278 ft 405 kts 343°
2026-04-26 19:54 55.26982 12.65326 29276 ft 405 kts 343°
2026-04-26 19:54 55.32468 12.63095 29275 ft 404 kts 343°
2026-04-26 19:55 55.37950 12.60857 29274 ft 404 kts 343°
2026-04-26 19:55 55.43426 12.58631 29275 ft 404 kts 343°
2026-04-26 19:56 55.48904 12.56384 29276 ft 404 kts 343°
2026-04-26 19:56 55.54383 12.54131 29277 ft 404 kts 343°
2026-04-26 19:57 55.59711 12.51933 29276 ft 404 kts 343°
2026-04-26 19:57 55.65184 12.49675 29276 ft 404 kts 343°
2026-04-26 19:58 55.70656 12.47400 29276 ft 404 kts 343°
2026-04-26 19:58 55.76118 12.45126 29276 ft 404 kts 343°
2026-04-26 19:59 55.81591 12.42836 29275 ft 404 kts 343°
2026-04-26 19:59 55.87059 12.40547 29269 ft 404 kts 343°
2026-04-26 20:00 55.92528 12.38255 29270 ft 404 kts 343°
2026-04-26 20:00 55.97989 12.35962 29268 ft 403 kts 343°
2026-04-26 20:01 56.03455 12.33671 29274 ft 403 kts 343°
2026-04-26 20:01 56.08910 12.31364 29273 ft 403 kts 343°
2026-04-26 20:02 56.14369 12.29045 29267 ft 403 kts 343°
2026-04-26 20:02 56.18937 12.27096 29278 ft 403 kts 343°
2026-04-26 20:03 56.25277 12.24389 29277 ft 403 kts 343°
2026-04-26 20:03 56.30729 12.22047 29275 ft 403 kts 343°
2026-04-26 20:04 56.36188 12.19709 29274 ft 403 kts 343°
2026-04-26 20:04 56.41523 12.17417 28936 ft 402 kts 343°
2026-04-26 20:05 56.44235 12.16247 28629 ft 398 kts 343°
2026-04-26 20:05 56.46908 12.15094 27991 ft 393 kts 343°
2026-04-26 20:05 56.49559 12.13942 27342 ft 389 kts 343°
2026-04-26 20:05 56.52175 12.12800 26722 ft 385 kts 343°
2026-04-26 20:06 56.54786 12.11762 26107 ft 383 kts 345°
2026-04-26 20:06 56.57406 12.10989 25502 ft 382 kts 351°
2026-04-26 20:06 56.60065 12.10948 24912 ft 381 kts 356°
2026-04-26 20:06 56.62698 12.10986 24338 ft 377 kts 355°
2026-04-26 20:07 56.65315 12.11015 23778 ft 374 kts 355°
2026-04-26 20:07 56.67911 12.11042 23113 ft 371 kts 355°
2026-04-26 20:07 56.70517 12.11071 22342 ft 373 kts 356°
2026-04-26 20:07 56.73123 12.11102 21487 ft 377 kts 356°
2026-04-26 20:08 56.75763 12.11132 20634 ft 381 kts 356°
2026-04-26 20:08 56.78424 12.11173 19812 ft 384 kts 356°
2026-04-26 20:08 56.81097 12.11218 19016 ft 386 kts 356°
2026-04-26 20:08 56.83792 12.11261 18178 ft 387 kts 356°
2026-04-26 20:09 56.86488 12.11303 17288 ft 389 kts 357°
2026-04-26 20:09 56.89198 12.11345 16431 ft 390 kts 357°
2026-04-26 20:09 56.91863 12.11393 16211 ft 376 kts 357°
2026-04-26 20:09 56.94404 12.11065 16080 ft 357 kts 346°
2026-04-26 20:10 56.96664 12.10207 15962 ft 342 kts 345°
2026-04-26 20:10 56.98946 12.09334 15827 ft 319 kts 345°
2026-04-26 20:10 57.01050 12.08538 15699 ft 298 kts 345°
2026-04-26 20:10 57.02988 12.07813 15575 ft 279 kts 345°
2026-04-26 20:11 57.04866 12.07117 15456 ft 267 kts 345°
2026-04-26 20:11 57.06632 12.06393 15329 ft 259 kts 342°
2026-04-26 20:11 57.08382 12.05548 15104 ft 255 kts 342°
2026-04-26 20:12 57.11800 12.03869 14554 ft 253 kts 342°
2026-04-26 20:12 57.13477 12.03043 14279 ft 252 kts 342°
2026-04-26 20:12 57.15170 12.02209 13996 ft 252 kts 342°
2026-04-26 20:12 57.16858 12.01378 13686 ft 251 kts 342°
2026-04-26 20:13 57.18537 12.00551 13380 ft 249 kts 342°
2026-04-26 20:13 57.20236 11.99714 13064 ft 248 kts 342°
2026-04-26 20:13 57.21902 11.98913 12750 ft 248 kts 345°
2026-04-26 20:13 57.23609 11.98948 12434 ft 252 kts
2026-04-26 20:14 57.25366 11.99355 12106 ft 250 kts
2026-04-26 20:14 57.27093 11.99637 11792 ft 249 kts
2026-04-26 20:14 57.28790 11.99908 11434 ft 247 kts
2026-04-26 20:14 57.30498 12.00181 11012 ft 245 kts
2026-04-26 20:15 57.32189 12.00454 10516 ft 244 kts
2026-04-26 20:15 57.33874 12.00727 10038 ft 242 kts
2026-04-26 20:15 57.35541 12.01121 9488 ft 243 kts 13°
2026-04-26 20:15 57.36984 12.02769 8937 ft 251 kts 43°
2026-04-26 20:16 57.37806 12.05648 8410 ft 259 kts 74°
2026-04-26 20:16 57.37931 12.08994 7861 ft 260 kts 83°
2026-04-26 20:16 57.38417 12.12116 7324 ft 248 kts 53°
2026-04-26 20:16 57.39623 12.14225 6824 ft 236 kts 23°
2026-04-26 20:17 57.41176 12.14718 6268 ft 229 kts 354°
2026-04-26 20:17 57.42765 12.14467 5667 ft 230 kts 355°
2026-04-26 20:17 57.44358 12.14245 5126 ft 229 kts 355°
2026-04-26 20:17 57.45407 12.14100 4759 ft 228 kts 355°
2026-04-26 20:18 57.47515 12.13810 4025 ft 227 kts 355°
2026-04-26 20:18 57.49066 12.13605 3633 ft 221 kts 357°
2026-04-26 20:18 57.50578 12.13993 3166 ft 221 kts 16°
2026-04-26 20:18 57.51967 12.15041 3016 ft 208 kts 23°
2026-04-26 20:19 57.52811 12.15786 3011 ft 198 kts 24°
2026-04-26 20:19 57.54017 12.16872 2926 ft 190 kts 24°
2026-04-26 20:19 57.55197 12.17937 2706 ft 187 kts 24°
2026-04-26 20:19 57.56367 12.18993 2467 ft 187 kts 24°
2026-04-26 20:20 57.57544 12.20056 2209 ft 188 kts 23°
2026-04-26 20:20 57.58723 12.21123 1970 ft 187 kts 23°
2026-04-26 20:20 57.59886 12.22176 1689 ft 185 kts 24°
2026-04-26 20:20 57.61031 12.23213 1406 ft 181 kts 23°
2026-04-26 20:21 57.62134 12.24202 1123 ft 168 kts 23°
2026-04-26 20:21 57.63102 12.25073 950 ft 144 kts 24°
2026-04-26 20:21 57.63963 12.25865 728 ft 133 kts 25°
2026-04-26 20:21 57.64777 12.26598 564 ft 125 kts 25°
2026-04-26 20:22 57.65494 12.27249 514 ft 102 kts 24°
2026-04-26 20:22 57.65982 12.27679 513 ft 53 kts 29°
2026-04-26 20:22 57.66198 12.27895 508 ft 30 kts 27°
2026-04-26 20:22 57.66379 12.28060 514 ft 28 kts 25°
2026-04-26 20:23 57.66536 12.28211 518 ft 24 kts 32°
2026-04-26 20:23 57.66661 12.28429 515 ft 25 kts 49°
2026-04-26 20:23 57.66759 12.28695 511 ft 14 kts 53°
2026-04-26 20:23 57.66778 12.28740 511 ft 0 kts 50°
2026-04-26 20:24 57.66779 12.28742 511 ft 1 kts 50°
2026-04-26 20:24 57.66789 12.28765 510 ft 4 kts 50°
2026-04-26 20:24 57.66812 12.28815 510 ft 6 kts 49°
2026-04-26 20:25 57.66835 12.28887 510 ft 7 kts 81°
2026-04-26 20:25 57.66821 12.28950 509 ft 6 kts 109°
2026-04-26 20:25 57.66856 12.29011 510 ft 5 kts 22°
2026-04-26 20:25 57.66889 12.29041 510 ft 6 kts 26°
2026-04-26 20:26 57.66928 12.29076 510 ft 7 kts 25°
2026-04-26 20:26 57.66971 12.29118 511 ft 7 kts 30°
2026-04-26 20:26 57.67004 12.29190 511 ft 8 kts 74°
2026-04-26 20:26 57.66983 12.29303 512 ft 6 kts 120°
2026-04-26 20:27 57.66981 12.29308 512 ft 0 kts 122°
2026-04-26 20:27 57.66977 12.29312 513 ft 2 kts 140°
2026-04-26 20:27 57.66946 12.29314 515 ft 8 kts 195°
2026-04-26 20:27 57.66911 12.29320 517 ft 3 kts 124°
2026-04-26 20:28 57.66908 12.29337 518 ft 1 kts 108°
2026-04-26 20:28 57.66907 12.29345 518 ft 2 kts 111°
2026-04-26 20:28 57.66899 12.29378 518 ft 3 kts 112°
2026-04-26 20:28 57.66889 12.29419 518 ft 2 kts 116°
2026-04-26 20:29 57.66887 12.29426 518 ft 0 kts 117°